IRIDIUM 33 DEB, 38028

Orbit data source: Space-Track

IRIDIUM 33 DEB, 38028 is space debris in LEO originally from a launch on Sun, 14 Sep 1997 UTC launched from the Tyuratam Missile And Space Complex (TTMTR). The debris from Iridium 33, an American commercial communications satellite, has been tracked extensively since its accidental collision with the defunct Russian satellite Cosmos 2251 in 2009. This event, occurring at high speed in low Earth orbit (LEO), generated thousands of pieces of space debris, significantly increasing the risk of further collisions. The Iridium 33 debris cloud has impacted space traffic management and orbital debris mitigation strategies, making it a subject of ongoing study in space situational awareness.

Loading next visibility...
Identifier
38028, 1997-051YQ
Orbit
LEO
Country
Flag of USUS
Related business
Manufacturer
Unknown
Mission
Spacecraft
Bus & Motor
Unknown
Mass
Unknown
Launch date (UTC)
1997-09-14 (28 years ago)
Launch vehicle
Unknown
Launch site
Tyuratam Missile And Space Complex (TTMTR)
Object type
Payload
Rocket body
Debris
Shape & HBR
Unknown shape, 0.1 m
Radar Cross Section
Small (<0.1 m²)

Expand to show TLE details & history
Last TLE update: 2 days ago

TLE from 2 days ago
0 IRIDIUM 33 DEB
1 38028U 97051YQ  25302.94983413  .00002169  00000-0  60125-3 0  9991
2 38028  86.3298  19.2933 0026423 267.8394  91.9783 14.45990814648620
Epoch: 2025-10-29T22:47Z
TLE epoch observation values (Epoch: 2025-10-29T22:47:45.668Z)
Latitude
0.00001°
Longitude
-1.16261°
Altitude
742.539 km
Speed
7.483 km/s
True Right ascension
01h 17m 10s
True Declination
0° 00' 00"
Sunlit
Object was in full shadow at epoch
Visualization orbit readout
Latitude
Unknown
Longitude
Unknown
Altitude
Unknown
Speed
Unknown
Apparent Right ascension
Unknown
Apparent Declination
Unknown
Sunlit
N/A
Visualization observer readout
Local Sidereal Time
03:04:26
Azimuth
Unknown
Elevation
Unknown
Doppler factor
Unknown
Orbital elements
Apogee altitude
754.519 km
Perigee altitude
716.925 km
Semi-major axis
7,113.859 km
Eccentricity
0.00264
Inclination
86.3298°
RAAN
19.2933°
Arg. of periapsis
267.8394°
True anomaly
92.28087°
Mean anomaly
91.9783°
Eccentric anomaly
92.12959°
Mean motion
3.61731 °/min
Orbital period
99.52 mins
BSTAR
0.00060125
Loading maneuver chart data...
Computing Atmospheric mass density...

Documentation

Showing up to 5 results
|